Location: Banios
(43.0451°N, 0.2335°E)
Time: 11:59:54
(UTC+00:00)

Envisat - Pass Details

Date: 12 December 2021
Orbit: 764 x 766 km, 98.2° (Epoch: 28 January)

Event Time Altitude Azimuth Distance (km) Brightness Sun altitude
Rises 05:34:04 0° 7° (N) 3,243 6.2 -18.8°
Reaches altitude 10° 05:36:27 10° 2° (N) 2,312 5.3 -18.4°
Maximum altitude 05:41:19 47° 289° (WNW) 1,007 3.2 -17.5°
Drops below altitude 10° 05:46:08 10° 217° (SW) 2,296 5.3 -16.7°
Sets 05:48:30 0° 211° (SSW) 3,217 6.1 -16.3°
